Temp
73 73 73 74 73 73 75 76 75 76 75 75 75 75 75 75 74 75 74 74 74 70 69 69 70 69 74 70 73 73 73 73 73 74 74 74 74 74 74 74 73 73 73 73 73 73 73 72 73 73 73 73 75 71 69 68 68 68 68 69 72 69
73 73 73 73 73 73 74 75 73 73 73 74 74 75 73 71 75 70 75 73 70 71 69 67 67 74 70 71 72 74 74 74 73 74 74 74 74 74 74 73 73 73 73 73 73 69 68 69 71 72 73 74 72 69 69 69 69 69 69 68 70 70
73 73 73 73 73 73 72 72 72 72 73 74 74 74 71 73 69 70 70 70 71 70 69 69 69 72 72 73 72 74 74 74 74 74 74 73 74 74 74 74 74 73 73 73 70 67 66 65 65 71 72 70 67 68 69 69 69 69 70 70 70 72
72 72 72 72 72 72 72 72 71 71 71 71 71 71 70 71 70 70 70 70 70 70 71 70 74 77 77 73 71 73 74 74 74 74 74 73 73 73 73 73 73 73 72 70 68 67 68 67 67 67 67 67 67 69 69 69 69 70 70 72 73 73
70 70 70 70 71 71 72 72 71 70 70 70 70 70 70 70 70 70 70 70 70 70 71 70 69 71 70 71 68 68 69 68 69 67 72 67 68 69 70 68 69 69 68 68 68 68 68 68 69 69 69 69 69 69 69 69 69 70 71 70 72 74
70 69 70 69 70 71 71 70 70 70 70 70 70 70 70 70 70 70 70 70 72 70 70 70 69 68 69 69 68 67 68 67 67 68 69 68 67 68 67 68 68 68 68 68 68 68 69 69 69 69 69 70 70 69 69 69 70 70 71 70 71 74
69 69 69 69 70 70 69 70 69 69 69 69 70 70 70 70 70 70 70 71 70 69 68 68 68 69 69 69 68 68 67 67 67 67 68 68 68 68 67 68 67 68 67 68 69 70 70 71 70 71 71 70 69 70 69 69 70 70 71 70 72 74
69 69 69 69 69 69 69 69 70 71 71 71 70 70 70 70 71 69 70 70 71 67 67 67 68 68 69 69 69 68 68 67 67 68 69 69 69 68 68 68 68 68 69 70 70 71 71 72 72 72 72 72 71 70 69 69 70 71 71 70 70 73
70 70 69 69 69 70 69 69 70 70 70 72 70 70 70 70 69 69 69 70 71 68 68 69 68 69 68 68 68 68 69 68 69 70 69 69 69 68 68 68 68 68 68 68 68 69 69 70 70 71 71 72 71 70 69 70 69 70 70 69 70 71
71 70 70 69 70 69 68 69 69 70 70 71 69 70 69 68 68 68 67 68 71 69 70 68 69 68 69 69 69 69 70 69 69 69 69 69 69 68 68 67 68 68 69 69 70 70 70 70 72 72 72 72 72 72 71 70 69 68 69 69 69 69
72 72 70 70 69 69 69 69 70 71 70 70 70 70 69 69 68 66 68 69 70 71 69 69 69 68 68 68 69 68 68 68 68 69 69 70 69 69 69 69 69 68 69 69 69 69 68 69 69 71 71 71 71 71 71 71 70 70 70 69 69 68
72 72 71 70 70 70 70 70 71 70 69 70 70 69 68 69 69 68 69 69 69 69 70 68 69 69 69 67 67 68 68 68 67 68 68 69 69 68 68 68 68 69 68 68 68 68 69 68 68 69 69 70 70 70 69 70 70 70 69 69 67 67
72 71 71 70 70 71 71 71 70 69 70 70 69 69 68 67 67 67 68 67 66 67 69 69 68 67 69 67 67 67 67 67 68 68 68 68 69 67 68 67 68 67 68 67 67 68 69 67 67 68 68 70 69 69 70 69 69 68 69 69 68 67
72 72 71 71 71 71 71 70 70 71 70 68 68 68 67 66 68 67 66 66 66 67 68 69 68 68 67 67 67 67 67 68 68 69 68 68 67 67 67 67 66 66 68 66 66 66 65 66 66 66 67 68 68 68 68 69 69 68 68 67 67 67
72 72 73 71 70 70 69 70 69 69 68 67 67 66 65 65 65 65 66 66 66 68 69 69 69 68 67 67 67 67 68 69 68 67 67 67 67 67 66 66 65 66 65 65 65 66 66 65 65 66 67 67 67 68 67 67 68 69 69 68 68 68
71 72 71 70 68 69 69 68 68 68 66 66 66 65 65 66 66 65 66 65 66 67 69 68 68 69 68 69 68 68 67 68 68 68 67 67 67 66 66 67 66 64 64 65 65 65 65 64 65 65 66 66 66 66 66 66 67 67 68 67 68 68
70 70 68 68 68 68 68 67 66 66 66 66 66 66 66 66 66 65 65 65 64 67 67 68 68 68 69 69 68 68 68 68 68 67 66 65 65 66 65 66 65 65 63 63 63 63 64 64 64 65 65 65 66 66 65 65 66 66 67 66 67 67
69 69 69 68 68 67 66 66 66 66 67 66 65 65 65 66 65 65 65 65 66 67 67 67 67 68 68 69 68 67 67 67 67 66 65 65 64 65 65 63 64 64 65 63 62 63 63 64 65 65 65 65 65 64 64 64 65 66 65 66 65 66
69 68 68 68 67 67 66 65 65 65 65 65 65 65 66 66 65 65 64 65 66 66 67 67 68 69 68 68 67 66 66 66 66 65 65 64 64 64 65 64 63 63 64 63 63 63 63 63 64 64 64 65 65 65 64 64 65 66 65 64 65 66
69 68 68 67 67 66 66 65 65 65 65 65 64 66 65 65 65 65 66 66 66 65 66 67 67 67 68 67 66 65 65 65 65 65 64 64 63 62 63 63 63 62 63 64 63 64 64 63 62 61 63 64 64 64 63 63 65 65 64 64 64 64
68 68 67 67 66 66 65 65 64 65 64 63 64 64 65 65 65 65 64 65 66 65 67 68 68 68 67 68 65 64 65 64 64 65 64 63 62 63 63 63 62 63 63 62 63 64 65 63 61 61 62 61 62 63 63 62 66 65 64 64 63 63
67 68 68 68 67 67 66 66 65 64 64 64 64 63 63 63 64 65 66 66 66 66 67 67 68 67 67 65 65 64 64 63 63 64 64 63 64 65 64 63 63 62 62 61 62 64 64 63 59 58 57 58 57 59 60 61 65 65 63 64 63 63
67 68 68 68 67 66 65 66 65 64 65 64 63 64 64 64 66 65 66 67 67 66 67 67 68 68 67 65 64 64 64 63 64 65 63 63 63 63 63 63 62 61 61 62 62 64 63 62 59 60 58 54 54 56 57 56 62 64 63 64 63 63
67 68 67 68 67 66 67 66 66 65 64 63 62 65 64 64 65 66 66 66 67 67 67 66 66 66 65 65 64 64 64 64 63 64 62 62 62 62 63 62 62 63 60 60 60 61 63 63 61 60 56 55 54 53 54 56 59 61 60 64 61 63
67 67 67 67 67 66 66 65 64 64 64 64 64 63 63 63 64 66 66 65 66 67 67 66 65 65 66 64 64 64 64 63 63 62 63 62 62 62 63 62 63 62 62 59 59 59 62 63 62 62 59 57 55 55 55 57 58 57 60 61 61 62
66 66 66 66 66 66 66 64 63 62 61 61 61 62 62 63 63 63 64 64 65 66 66 65 65 65 65 65 64 63 63 63 62 62 62 62 62 62 62 62 63 62 62 63 61 59 58 62 62 61 61 60 59 56 55 57 56 53 61 60 59 62
66 66 66 66 66 66 65 64 64 63 63 63 62 61 62 63 64 64 65 65 65 65 66 65 65 64 64 64 63 63 62 62 62 62 63 62 61 61 62 63 63 62 62 63 63 59 58 57 59 60 60 59 60 60 58 56 53 56 54 57 58 60
66 66 66 66 66 66 65 64 63 63 63 63 63 62 63 64 65 66 65 64 64 63 64 64 64 64 65 64 63 62 62 62 62 62 62 61 60 61 62 63 63 63 63 62 60 58 57 57 56 56 59 58 58 58 58 56 57 55 54 52 55 59
66 66 66 66 66 66 65 64 64 63 62 62 63 63 64 66 65 65 64 63 63 63 63 63 63 63 63 63 63 62 61 61 61 61 63 61 61 63 63 63 61 60 60 59 59 59 57 56 56 56 55 56 55 56 56 56 57 56 54 53 53 54
65 65 66 66 65 65 65 64 63 62 62 61 63 63 63 63 63 64 63 62 61 61 61 61 62 62 62 62 61 61 61 61 60 62 62 60 61 63 64 63 61 59 59 59 58 58 57 56 58 59 59 58 56 55 55 55 57 56 55 55 53 54
66 66 66 65 65 64 64 63 63 62 63 62 62 63 62 62 62 61 62 61 60 60 60 60 61 61 61 61 61 62 60 60 61 62 62 61 63 64 63 61 60 59 59 58 57 57 57 57 57 56 56 57 57 57 55 54 56 57 56 55 54 55
66 66 65 65 64 63 63 63 63 63 63 63 63 63 62 62 61 61 61 60 60 60 59 59 60 60 60 60 60 59 60 60 61 61 62 64 64 64 62 60 59 58 58 58 58 58 56 55 55 55 55 56 57 57 57 56 58 58 56 55 55 54
65 65 64 63 63 63 63 62 63 63 63 64 64 63 62 61 62 61 61 60 59 58 59 59 58 59 58 58 60 60 60 59 60 61 61 61 62 61 59 58 58 58 58 57 57 56 56 55 55 54 54 55 55 55 56 58 58 57 57 56 56 54
64 64 63 63 63 62 62 63 63 63 63 63 62 62 62 62 61 61 61 59 59 59 58 58 59 58 59 59 59 60 59 59 59 59 60 59 59 59 59 58 58 58 57 57 57 56 56 55 55 55 55 54 54 54 54 55 56 55 53 53 54 54
63 63 63 62 63 63 62 63 63 63 63 62 62 61 61 61 61 61 60 60 59 59 59 59 59 60 60 58 59 58 59 59 59 59 59 59 59 58 58 58 58 58 57 57 56 56 55 55 54 54 54 53 54 54 54 54 54 53 54 53 53 53
64 63 63 63 63 63 62 63 62 62 62 63 62 61 60 61 61 61 60 60 59 59 59 59 60 61 60 59 58 59 59 59 59 58 58 57 57 57 57 57 57 57 56 58 56 55 54 54 54 53 53 53 53 53 53 53 54 53 53 53 53 54
63 63 63 63 62 62 62 62 61 62 62 62 61 60 60 60 60 60 60 60 60 59 60 60 61 59 58 57 57 57 58 58 58 58 57 56 57 57 57 57 56 55 55 55 55 54 54 53 53 53 53 53 52 52 53 53 53 53 52 53 53 53
MSLP
1015.76 1015.88 1016.04 1016.16 1016.24 1016.36 1016.44 1016.60 1016.80 1016.92 1017.04 1017.16 1017.32 1017.40 1017.52 1017.56 1017.60 1017.60 1017.64 1017.68 1017.68 1017.72 1017.72 1017.76 1017.72 1017.80 1017.76 1017.84 1017.92 1017.92 1017.96 1017.96 1017.96 1017.96 1017.96 1017.96 1018.00 1018.00 1018.00 1017.96 1017.92 1017.88 1017.84 1017.76 1017.72 1017.64 1017.56 1017.52 1017.48 1017.40 1017.28 1017.16 1017.04 1016.96 1016.88 1016.80 1016.76 1016.84 1016.84 1016.80 1016.68 1016.72
1015.84 1015.96 1016.12 1016.28 1016.36 1016.44 1016.56 1016.68 1016.88 1017.00 1017.12 1017.28 1017.36 1017.48 1017.56 1017.60 1017.56 1017.68 1017.68 1017.68 1017.72 1017.72 1017.72 1017.76 1017.76 1017.68 1017.72 1017.76 1017.80 1017.88 1017.92 1017.92 1017.92 1017.92 1017.88 1017.88 1017.92 1017.92 1017.92 1017.92 1017.92 1017.88 1017.80 1017.72 1017.68 1017.64 1017.60 1017.52 1017.44 1017.32 1017.24 1017.12 1017.08 1017.04 1016.92 1016.88 1016.80 1016.68 1016.76 1016.72 1016.64 1016.56
1015.92 1016.04 1016.20 1016.36 1016.48 1016.60 1016.72 1016.84 1017.00 1017.12 1017.24 1017.32 1017.40 1017.52 1017.60 1017.56 1017.60 1017.72 1017.72 1017.68 1017.68 1017.72 1017.72 1017.72 1017.68 1017.64 1017.64 1017.68 1017.72 1017.80 1017.84 1017.88 1017.88 1017.88 1017.88 1017.88 1017.84 1017.84 1017.84 1017.84 1017.80 1017.76 1017.76 1017.72 1017.72 1017.68 1017.60 1017.56 1017.44 1017.28 1017.20 1017.16 1017.16 1017.00 1016.92 1016.88 1016.80 1016.68 1016.56 1016.56 1016.52 1016.44
1016.08 1016.16 1016.32 1016.52 1016.64 1016.76 1016.88 1017.00 1017.12 1017.24 1017.32 1017.44 1017.48 1017.56 1017.56 1017.52 1017.60 1017.68 1017.72 1017.72 1017.72 1017.72 1017.68 1017.68 1017.60 1017.48 1017.48 1017.60 1017.68 1017.72 1017.76 1017.76 1017.76 1017.80 1017.84 1017.84 1017.88 1017.84 1017.84 1017.80 1017.76 1017.72 1017.72 1017.68 1017.68 1017.68 1017.64 1017.48 1017.40 1017.28 1017.20 1017.12 1017.08 1016.92 1016.88 1016.80 1016.80 1016.68 1016.48 1016.40 1016.28 1016.24
1016.28 1016.36 1016.52 1016.68 1016.84 1017.00 1017.04 1017.16 1017.28 1017.36 1017.44 1017.52 1017.60 1017.60 1017.56 1017.56 1017.60 1017.68 1017.72 1017.72 1017.68 1017.72 1017.68 1017.68 1017.64 1017.64 1017.56 1017.60 1017.68 1017.72 1017.72 1017.72 1017.72 1017.80 1017.76 1017.88 1017.92 1017.92 1017.92 1017.92 1017.88 1017.84 1017.80 1017.76 1017.72 1017.60 1017.60 1017.56 1017.36 1017.24 1017.12 1017.00 1016.92 1016.80 1016.72 1016.64 1016.60 1016.52 1016.40 1016.28 1016.20 1016.08
1016.52 1016.60 1016.68 1016.80 1016.92 1017.04 1017.16 1017.40 1017.48 1017.48 1017.56 1017.60 1017.60 1017.64 1017.60 1017.60 1017.64 1017.68 1017.72 1017.72 1017.72 1017.76 1017.72 1017.68 1017.68 1017.72 1017.72 1017.60 1017.64 1017.64 1017.68 1017.68 1017.72 1017.72 1017.68 1017.84 1017.84 1017.88 1017.92 1017.92 1017.88 1017.88 1017.80 1017.76 1017.72 1017.60 1017.48 1017.44 1017.40 1017.28 1017.16 1016.96 1016.84 1016.72 1016.64 1016.52 1016.44 1016.40 1016.24 1016.12 1016.04 1015.96
1016.72 1016.76 1016.84 1016.84 1016.92 1017.00 1017.24 1017.32 1017.40 1017.48 1017.64 1017.72 1017.64 1017.72 1017.76 1017.64 1017.64 1017.64 1017.64 1017.68 1017.84 1017.76 1017.80 1017.76 1017.68 1017.68 1017.60 1017.48 1017.56 1017.60 1017.60 1017.60 1017.68 1017.72 1017.64 1017.72 1017.80 1017.80 1017.80 1017.80 1017.80 1017.80 1017.72 1017.72 1017.60 1017.44 1017.32 1017.20 1017.12 1017.08 1016.96 1016.88 1016.72 1016.60 1016.48 1016.36 1016.28 1016.20 1016.08 1015.96 1015.92 1015.88
1016.60 1016.76 1016.88 1016.84 1016.92 1017.04 1017.12 1017.24 1017.36 1017.44 1017.52 1017.52 1017.64 1017.84 1017.76 1017.64 1017.56 1017.64 1017.56 1017.56 1017.56 1017.72 1017.68 1017.68 1017.60 1017.52 1017.48 1017.44 1017.52 1017.48 1017.52 1017.60 1017.60 1017.60 1017.52 1017.60 1017.76 1017.72 1017.76 1017.80 1017.76 1017.68 1017.60 1017.48 1017.44 1017.28 1017.16 1017.04 1016.92 1016.80 1016.80 1016.64 1016.52 1016.44 1016.36 1016.28 1016.16 1016.08 1015.96 1016.00 1015.96 1015.76
1016.36 1016.56 1016.72 1016.76 1016.96 1016.96 1017.08 1017.24 1017.32 1017.44 1017.48 1017.40 1017.68 1017.76 1017.64 1017.56 1017.60 1017.52 1017.44 1017.44 1017.40 1017.44 1017.40 1017.44 1017.52 1017.48 1017.44 1017.56 1017.52 1017.44 1017.48 1017.52 1017.48 1017.44 1017.48 1017.68 1017.72 1017.80 1017.80 1017.72 1017.68 1017.64 1017.52 1017.44 1017.32 1017.24 1017.12 1017.00 1016.88 1016.80 1016.76 1016.68 1016.52 1016.36 1016.28 1016.16 1016.08 1015.92 1015.84 1015.88 1015.80 1015.68
1016.20 1016.36 1016.56 1016.80 1016.92 1017.08 1017.20 1017.36 1017.32 1017.32 1017.28 1017.44 1017.64 1017.56 1017.52 1017.60 1017.52 1017.52 1017.48 1017.28 1017.20 1017.24 1017.32 1017.44 1017.48 1017.40 1017.40 1017.52 1017.44 1017.40 1017.40 1017.40 1017.44 1017.44 1017.52 1017.76 1017.68 1017.68 1017.76 1017.68 1017.60 1017.52 1017.48 1017.36 1017.28 1017.08 1017.00 1016.96 1016.84 1016.68 1016.56 1016.56 1016.44 1016.28 1016.16 1016.08 1016.00 1015.92 1015.80 1015.72 1015.60 1015.44
1016.04 1016.28 1016.60 1016.88 1016.96 1017.12 1017.16 1017.24 1017.16 1017.12 1017.24 1017.40 1017.40 1017.40 1017.48 1017.48 1017.48 1017.40 1017.24 1017.20 1017.24 1017.12 1017.28 1017.32 1017.32 1017.32 1017.36 1017.40 1017.48 1017.48 1017.48 1017.36 1017.36 1017.40 1017.44 1017.60 1017.48 1017.52 1017.56 1017.56 1017.60 1017.64 1017.60 1017.52 1017.40 1017.20 1017.12 1017.12 1016.96 1016.80 1016.68 1016.64 1016.48 1016.28 1016.12 1015.88 1015.80 1015.68 1015.60 1015.44 1015.32 1015.20
1015.88 1016.28 1016.64 1016.88 1016.92 1017.04 1017.00 1016.92 1016.92 1017.04 1017.12 1017.12 1017.20 1017.44 1017.48 1017.48 1017.40 1017.36 1017.32 1017.32 1017.32 1017.36 1017.36 1017.32 1017.24 1017.20 1017.24 1017.36 1017.48 1017.52 1017.40 1017.44 1017.52 1017.36 1017.36 1017.40 1017.44 1017.40 1017.48 1017.48 1017.52 1017.52 1017.48 1017.40 1017.36 1017.16 1017.00 1017.04 1017.00 1016.84 1016.68 1016.60 1016.40 1016.28 1016.12 1015.92 1015.80 1015.64 1015.52 1015.36 1015.28 1015.24
1015.64 1016.16 1016.56 1016.76 1016.76 1016.64 1016.56 1016.64 1016.84 1016.92 1016.96 1017.08 1017.28 1017.40 1017.48 1017.48 1017.52 1017.48 1017.36 1017.36 1017.40 1017.40 1017.32 1017.28 1017.16 1017.20 1017.16 1017.20 1017.32 1017.44 1017.48 1017.48 1017.36 1017.36 1017.32 1017.32 1017.36 1017.44 1017.48 1017.56 1017.56 1017.44 1017.36 1017.36 1017.32 1017.24 1017.04 1016.96 1016.96 1016.80 1016.68 1016.52 1016.36 1016.24 1016.00 1015.88 1015.72 1015.60 1015.48 1015.36 1015.24 1015.08
1015.52 1016.00 1016.28 1016.44 1016.48 1016.56 1016.60 1016.72 1016.76 1016.84 1017.00 1017.20 1017.28 1017.40 1017.56 1017.60 1017.52 1017.52 1017.44 1017.44 1017.44 1017.36 1017.36 1017.28 1017.24 1017.20 1017.08 1017.16 1017.28 1017.36 1017.48 1017.40 1017.32 1017.28 1017.24 1017.36 1017.56 1017.64 1017.68 1017.68 1017.68 1017.56 1017.56 1017.56 1017.56 1017.40 1017.28 1017.20 1017.00 1016.88 1016.76 1016.56 1016.44 1016.32 1016.12 1015.96 1015.76 1015.64 1015.48 1015.36 1015.16 1015.08
1015.44 1015.80 1016.12 1016.40 1016.72 1016.80 1016.84 1016.84 1016.96 1017.00 1017.12 1017.24 1017.40 1017.52 1017.60 1017.56 1017.56 1017.56 1017.56 1017.52 1017.44 1017.44 1017.44 1017.28 1017.28 1017.20 1017.16 1017.12 1017.32 1017.48 1017.48 1017.44 1017.28 1017.24 1017.40 1017.52 1017.64 1017.68 1017.72 1017.76 1017.72 1017.76 1017.68 1017.60 1017.60 1017.44 1017.44 1017.40 1017.28 1017.08 1016.84 1016.64 1016.56 1016.32 1016.16 1016.08 1015.84 1015.68 1015.48 1015.28 1015.16 1015.04
1015.52 1015.80 1016.12 1016.52 1016.76 1016.72 1016.72 1016.76 1016.92 1017.08 1017.20 1017.32 1017.40 1017.52 1017.56 1017.56 1017.56 1017.60 1017.56 1017.56 1017.48 1017.60 1017.48 1017.28 1017.20 1017.08 1017.16 1017.16 1017.36 1017.56 1017.60 1017.48 1017.44 1017.44 1017.56 1017.64 1017.68 1017.88 1017.84 1017.76 1017.68 1017.76 1017.92 1017.80 1017.76 1017.68 1017.52 1017.48 1017.24 1017.12 1016.84 1016.68 1016.52 1016.40 1016.36 1016.16 1016.04 1015.84 1015.52 1015.36 1015.20 1015.08
1015.56 1015.88 1016.36 1016.60 1016.64 1016.68 1016.68 1016.84 1016.92 1017.08 1017.16 1017.28 1017.40 1017.52 1017.64 1017.60 1017.60 1017.64 1017.68 1017.76 1017.76 1017.80 1017.48 1017.36 1017.24 1017.24 1017.20 1017.28 1017.52 1017.68 1017.72 1017.64 1017.60 1017.64 1017.76 1017.80 1017.88 1017.96 1017.96 1017.92 1017.76 1017.68 1017.80 1017.96 1017.96 1017.92 1017.68 1017.48 1017.32 1017.08 1016.80 1016.68 1016.52 1016.44 1016.40 1016.32 1016.16 1015.92 1015.64 1015.52 1015.32 1015.20
1015.56 1015.88 1016.28 1016.64 1016.76 1016.88 1016.88 1016.84 1016.92 1017.08 1017.20 1017.40 1017.56 1017.68 1017.76 1017.72 1017.76 1017.84 1017.88 1017.92 1017.88 1017.72 1017.52 1017.52 1017.40 1017.32 1017.36 1017.40 1017.60 1017.80 1017.84 1017.72 1017.68 1017.76 1017.88 1017.92 1018.04 1017.96 1017.96 1018.00 1018.00 1017.80 1017.84 1017.92 1017.96 1017.96 1017.84 1017.52 1017.28 1017.04 1016.84 1016.64 1016.48 1016.40 1016.40 1016.32 1016.12 1015.88 1015.80 1015.68 1015.48 1015.28
1015.56 1015.80 1016.24 1016.56 1016.84 1017.00 1017.04 1017.08 1017.12 1017.24 1017.44 1017.56 1017.72 1017.88 1017.88 1017.92 1017.96 1018.00 1018.04 1017.96 1017.88 1017.68 1017.64 1017.56 1017.56 1017.48 1017.52 1017.52 1017.68 1017.88 1017.96 1017.92 1017.80 1017.88 1018.00 1018.08 1018.16 1018.12 1018.08 1018.04 1018.12 1018.08 1017.88 1017.84 1017.92 1017.88 1017.80 1017.52 1017.24 1017.04 1016.88 1016.64 1016.52 1016.40 1016.40 1016.24 1016.04 1015.92 1015.88 1015.80 1015.64 1015.36
1015.52 1015.68 1016.08 1016.56 1016.88 1017.16 1017.28 1017.32 1017.52 1017.60 1017.76 1017.84 1017.96 1018.04 1018.08 1018.12 1018.08 1018.08 1018.04 1017.92 1017.80 1017.64 1017.68 1017.76 1017.76 1017.64 1017.60 1017.64 1017.80 1017.96 1018.00 1017.92 1017.92 1017.96 1018.16 1018.24 1018.32 1018.36 1018.36 1018.24 1018.16 1018.12 1018.08 1017.92 1017.76 1017.76 1017.56 1017.44 1017.24 1017.12 1016.88 1016.64 1016.52 1016.36 1016.32 1016.24 1016.08 1016.04 1015.96 1015.84 1015.76 1015.52
1015.60 1015.72 1016.12 1016.60 1016.92 1017.16 1017.44 1017.60 1017.56 1017.64 1017.88 1018.12 1018.16 1018.20 1018.28 1018.28 1018.24 1018.16 1018.08 1018.00 1017.88 1017.80 1017.80 1017.80 1017.80 1017.68 1017.68 1017.72 1017.88 1017.96 1018.00 1018.04 1018.00 1018.08 1018.24 1018.40 1018.44 1018.40 1018.28 1018.24 1018.16 1018.04 1018.20 1018.24 1018.00 1017.76 1017.56 1017.40 1017.40 1017.16 1016.92 1016.92 1016.76 1016.40 1016.28 1016.28 1016.24 1016.16 1016.08 1015.92 1015.76 1015.64
1015.72 1015.92 1016.16 1016.40 1016.64 1016.88 1016.96 1017.04 1017.16 1017.52 1017.72 1018.08 1018.32 1018.40 1018.56 1018.44 1018.24 1018.16 1018.08 1017.92 1017.88 1017.96 1017.96 1017.84 1017.76 1017.64 1017.76 1017.84 1017.96 1018.04 1018.12 1018.20 1018.20 1018.24 1018.40 1018.48 1018.40 1018.32 1018.28 1018.24 1018.24 1018.32 1018.20 1018.44 1018.40 1018.08 1017.88 1017.48 1017.68 1018.16 1017.92 1017.48 1017.16 1016.84 1016.44 1016.44 1016.40 1016.32 1016.16 1015.96 1015.88 1015.84
1015.68 1015.92 1016.16 1016.32 1016.56 1016.84 1016.88 1016.88 1016.88 1017.32 1017.56 1018.08 1018.24 1018.28 1018.32 1018.32 1018.24 1018.20 1018.04 1018.04 1018.12 1018.12 1018.00 1017.92 1017.72 1017.68 1017.80 1017.88 1017.96 1018.08 1018.32 1018.36 1018.44 1018.48 1018.60 1018.68 1018.52 1018.52 1018.48 1018.48 1018.44 1018.64 1018.64 1018.44 1018.48 1018.20 1018.16 1018.04 1018.52 1017.96 1017.68 1017.88 1017.92 1018.00 1017.08 1016.84 1016.72 1016.56 1016.32 1016.16 1016.08 1016.00
1015.76 1015.92 1016.16 1016.36 1016.52 1016.64 1016.68 1016.76 1016.88 1017.20 1017.68 1017.96 1018.40 1018.48 1018.48 1018.56 1018.52 1018.36 1018.40 1018.24 1018.16 1018.04 1017.96 1017.88 1017.80 1017.80 1017.80 1017.88 1018.08 1018.32 1018.44 1018.60 1018.72 1018.68 1018.76 1018.80 1018.76 1018.76 1018.68 1018.64 1018.60 1018.60 1018.72 1018.96 1018.88 1018.76 1018.36 1018.28 1018.32 1018.20 1018.40 1018.64 1018.40 1018.24 1018.28 1018.00 1017.84 1017.04 1016.60 1016.36 1016.24 1016.16
1015.72 1015.92 1016.16 1016.36 1016.48 1016.56 1016.72 1017.00 1017.24 1017.52 1017.76 1018.20 1018.52 1018.76 1018.84 1018.96 1018.80 1018.60 1018.52 1018.40 1018.28 1018.00 1017.92 1017.96 1017.96 1017.88 1017.92 1018.16 1018.28 1018.48 1018.68 1018.84 1018.92 1018.88 1018.80 1018.88 1018.92 1018.96 1018.88 1018.84 1018.76 1018.80 1018.92 1019.08 1019.32 1019.12 1018.76 1018.48 1018.44 1018.32 1018.68 1018.60 1018.64 1018.52 1019.04 1018.68 1018.24 1017.44 1016.88 1016.68 1016.40 1016.36
1015.72 1015.92 1016.20 1016.36 1016.40 1016.48 1016.68 1016.96 1017.40 1017.80 1018.40 1018.72 1019.08 1019.12 1019.12 1019.08 1018.96 1018.76 1018.64 1018.44 1018.24 1018.08 1018.00 1018.04 1018.08 1018.08 1018.20 1018.36 1018.56 1018.68 1018.84 1019.00 1019.08 1019.04 1018.96 1019.00 1019.00 1019.00 1019.04 1019.00 1019.00 1019.04 1019.08 1019.00 1019.20 1019.32 1019.36 1018.80 1018.64 1018.64 1018.60 1018.84 1019.04 1019.52 1019.36 1018.80 1018.56 1018.76 1017.32 1016.88 1016.72 1016.52
1015.72 1016.00 1016.12 1016.36 1016.44 1016.52 1016.80 1017.00 1017.20 1017.48 1017.80 1018.28 1018.76 1018.88 1018.68 1018.64 1018.64 1018.64 1018.52 1018.48 1018.36 1018.24 1018.16 1018.20 1018.32 1018.36 1018.52 1018.60 1018.76 1018.92 1019.08 1019.16 1019.16 1019.08 1019.00 1019.04 1019.20 1019.28 1019.24 1019.20 1019.16 1019.16 1019.28 1019.20 1019.16 1019.56 1019.56 1019.44 1018.96 1018.88 1018.92 1018.92 1018.88 1018.96 1019.12 1019.20 1019.48 1018.84 1018.40 1017.48 1017.04 1016.88
1015.76 1016.00 1016.12 1016.28 1016.48 1016.44 1016.68 1017.04 1017.36 1017.72 1018.04 1018.36 1018.44 1018.64 1018.68 1018.68 1018.52 1018.52 1018.64 1018.68 1018.64 1018.56 1018.40 1018.36 1018.48 1018.60 1018.68 1018.84 1019.00 1019.20 1019.24 1019.24 1019.20 1019.16 1019.16 1019.32 1019.44 1019.36 1019.36 1019.40 1019.40 1019.44 1019.40 1019.44 1019.52 1019.60 1019.68 1019.48 1019.48 1019.60 1019.24 1019.20 1019.12 1019.04 1019.04 1019.08 1019.20 1019.28 1019.04 1018.72 1017.76 1016.92
1015.84 1016.00 1016.16 1016.24 1016.36 1016.44 1016.56 1016.92 1017.28 1017.68 1018.24 1018.44 1018.48 1018.52 1018.52 1018.52 1018.64 1018.72 1018.88 1019.00 1018.84 1018.72 1018.64 1018.60 1018.64 1018.84 1019.00 1019.08 1019.20 1019.32 1019.32 1019.28 1019.24 1019.32 1019.36 1019.44 1019.44 1019.44 1019.60 1019.72 1019.80 1019.84 1019.80 1019.76 1019.68 1019.68 1019.68 1019.72 1019.64 1019.72 1019.56 1019.40 1019.32 1019.32 1019.20 1019.16 1019.04 1018.92 1019.04 1018.92 1018.52 1018.28
1015.92 1016.00 1016.12 1016.28 1016.36 1016.48 1016.68 1016.92 1017.36 1017.76 1018.12 1018.56 1018.64 1018.64 1018.60 1018.84 1018.92 1018.96 1019.16 1019.24 1019.00 1019.00 1018.92 1018.96 1019.04 1019.12 1019.24 1019.28 1019.32 1019.32 1019.36 1019.36 1019.40 1019.44 1019.48 1019.56 1019.60 1019.68 1019.80 1019.92 1020.08 1020.08 1020.00 1019.92 1019.88 1019.84 1019.88 1019.84 1019.76 1019.72 1019.64 1019.64 1019.60 1019.48 1019.32 1019.20 1018.96 1018.92 1018.84 1018.80 1019.04 1018.60
1015.92 1016.00 1016.12 1016.32 1016.40 1016.60 1016.76 1016.96 1017.24 1017.68 1018.00 1018.36 1018.64 1018.60 1018.88 1019.12 1019.12 1019.24 1019.44 1019.44 1019.32 1019.28 1019.20 1019.32 1019.32 1019.40 1019.40 1019.36 1019.36 1019.40 1019.48 1019.52 1019.52 1019.56 1019.64 1019.72 1019.84 1019.92 1020.12 1020.24 1020.28 1020.20 1020.16 1020.16 1020.16 1020.12 1020.04 1020.00 1020.00 1020.00 1019.96 1019.88 1019.88 1019.84 1019.96 1019.96 1019.72 1019.36 1019.28 1019.16 1018.92 1018.60
1016.00 1016.12 1016.24 1016.36 1016.56 1016.72 1016.84 1017.08 1017.32 1017.60 1017.96 1018.16 1018.32 1018.64 1018.84 1019.08 1019.20 1019.36 1019.52 1019.56 1019.44 1019.32 1019.44 1019.48 1019.48 1019.48 1019.52 1019.48 1019.52 1019.60 1019.60 1019.60 1019.64 1019.72 1019.88 1019.88 1019.96 1020.12 1020.28 1020.40 1020.48 1020.44 1020.44 1020.36 1020.36 1020.36 1020.40 1020.44 1020.36 1020.32 1020.32 1020.28 1020.20 1020.12 1020.00 1019.96 1019.72 1019.48 1019.40 1019.24 1019.04 1018.84
1016.04 1016.20 1016.36 1016.48 1016.68 1016.84 1016.96 1017.20 1017.48 1017.72 1017.96 1018.04 1018.16 1018.44 1018.68 1018.88 1019.08 1019.32 1019.44 1019.48 1019.32 1019.44 1019.44 1019.60 1019.68 1019.68 1019.72 1019.68 1019.68 1019.72 1019.76 1019.84 1019.96 1020.04 1020.04 1020.04 1020.20 1020.32 1020.48 1020.60 1020.68 1020.64 1020.60 1020.64 1020.68 1020.68 1020.68 1020.76 1020.72 1020.76 1020.76 1020.60 1020.52 1020.48 1020.44 1020.16 1019.88 1019.88 1019.68 1019.44 1019.08 1018.96
1015.96 1016.12 1016.32 1016.52 1016.68 1016.88 1017.08 1017.28 1017.48 1017.76 1017.92 1017.96 1018.24 1018.48 1018.64 1018.80 1019.00 1019.16 1019.32 1019.36 1019.28 1019.36 1019.56 1019.72 1019.80 1019.84 1019.80 1019.80 1019.76 1019.84 1019.92 1020.00 1020.12 1020.16 1020.16 1020.28 1020.36 1020.52 1020.64 1020.76 1020.80 1020.80 1020.80 1020.88 1020.84 1020.84 1020.88 1020.92 1020.92 1020.96 1020.88 1020.88 1020.88 1020.88 1020.76 1020.56 1020.40 1020.28 1020.24 1019.92 1019.60 1019.40
1015.96 1016.16 1016.28 1016.48 1016.64 1016.88 1017.16 1017.40 1017.60 1017.80 1017.92 1017.96 1018.28 1018.48 1018.68 1018.76 1018.92 1019.12 1019.28 1019.28 1019.32 1019.40 1019.60 1019.80 1019.80 1019.80 1019.84 1019.96 1020.04 1020.04 1020.08 1020.20 1020.32 1020.36 1020.40 1020.44 1020.56 1020.68 1020.80 1020.88 1020.92 1020.96 1021.00 1021.08 1021.12 1021.12 1021.20 1021.24 1021.28 1021.28 1021.20 1021.12 1021.12 1021.04 1021.04 1020.96 1020.76 1020.68 1020.48 1020.32 1020.16 1019.88
1015.84 1016.08 1016.24 1016.44 1016.68 1016.88 1017.20 1017.44 1017.72 1017.96 1018.04 1018.04 1018.32 1018.56 1018.76 1018.84 1018.96 1019.00 1019.16 1019.20 1019.40 1019.48 1019.64 1019.72 1019.80 1019.80 1020.00 1020.12 1020.20 1020.28 1020.36 1020.44 1020.48 1020.48 1020.56 1020.60 1020.72 1020.80 1020.96 1021.08 1021.16 1021.20 1021.28 1021.28 1021.36 1021.40 1021.52 1021.48 1021.52 1021.48 1021.40 1021.32 1021.24 1021.36 1021.28 1021.20 1021.04 1020.96 1020.76 1020.56 1020.28 1019.96
1015.96 1016.08 1016.24 1016.40 1016.68 1016.96 1017.24 1017.60 1017.92 1018.04 1018.08 1018.20 1018.40 1018.60 1018.76 1018.88 1018.96 1019.08 1019.12 1019.24 1019.32 1019.44 1019.56 1019.68 1019.84 1019.92 1020.16 1020.28 1020.36 1020.48 1020.56 1020.60 1020.60 1020.64 1020.72 1020.80 1020.84 1020.96 1021.08 1021.20 1021.36 1021.44 1021.56 1021.60 1021.56 1021.72 1021.80 1021.80 1021.80 1021.68 1021.56 1021.52 1021.56 1021.56 1021.52 1021.40 1021.24 1021.08 1020.96 1020.68 1020.48 1020.24
Wind_Speed
7 7 7 7 6 7 10 14 12 13 12 11 10 10 10 9 8 8 7 7 6 2 2 2 3 2 5 3 5 4 5 4 3 3 3 3 3 4 5 6 7 7 8 8 9 10 10 10 9 10 11 11 12 8 7 6 5 2 2 2 4 6
7 8 7 6 5 5 7 9 6 7 6 7 8 8 6 4 6 3 7 5 3 3 3 3 2 5 3 3 4 6 5 5 4 3 3 4 4 4 5 6 6 7 8 8 9 5 5 7 9 10 10 12 8 6 6 6 6 6 3 3 3 6
8 8 8 6 5 5 6 5 5 5 4 7 6 5 3 4 3 3 3 3 3 3 3 3 3 4 4 6 5 7 6 5 5 4 4 4 5 6 6 7 8 8 8 8 5 5 5 5 6 9 9 6 6 6 6 6 6 6 6 3 4 8
8 8 7 5 5 5 5 5 4 4 4 4 4 4 4 4 4 3 3 4 3 3 3 4 6 9 7 4 4 6 7 6 5 5 5 4 5 6 8 8 8 9 6 4 4 4 4 5 5 5 5 5 5 6 6 6 5 6 7 5 5 10
6 6 6 5 5 5 5 4 4 4 4 4 4 4 5 5 3 4 4 4 4 3 4 4 4 4 2 3 3 3 3 3 1 2 3 2 2 3 4 4 4 5 4 5 5 5 4 5 6 6 5 6 5 5 5 5 6 6 7 6 5 9
5 5 5 5 5 6 6 4 4 4 4 4 4 5 5 4 4 4 4 4 4 5 5 5 4 4 3 4 4 4 4 2 2 2 2 3 3 3 3 3 3 4 5 4 5 5 5 5 5 5 6 6 6 6 5 5 5 5 6 6 5 9
6 5 5 5 5 5 5 5 4 5 4 5 4 5 5 5 5 4 4 4 5 5 4 5 4 5 5 4 4 3 3 2 2 3 2 2 3 3 4 4 4 4 4 3 5 5 5 5 5 5 5 5 5 5 5 5 5 5 6 5 6 8
6 6 5 5 6 6 5 5 5 6 6 6 6 5 5 6 5 4 4 5 4 5 6 4 3 1 2 3 3 3 2 2 2 4 3 2 3 4 3 3 3 4 4 4 4 4 4 4 5 4 5 5 4 5 5 5 5 6 5 3 4 7
7 8 7 6 6 6 5 5 5 6 7 6 5 5 6 5 4 5 5 5 4 3 2 3 2 1 3 2 2 2 2 3 4 4 1 2 2 3 3 3 4 3 4 4 4 4 3 4 4 4 4 5 5 5 4 5 5 5 3 3 4 6
9 8 7 6 6 5 5 6 6 6 6 4 4 5 5 5 5 5 5 3 2 3 3 3 2 1 3 2 2 1 2 2 2 1 0 0 2 2 2 3 3 3 4 5 5 6 5 6 6 6 6 6 6 6 5 4 4 5 4 5 4 3
8 7 6 7 6 5 5 6 7 6 4 5 5 5 5 5 6 4 3 3 2 3 3 2 3 2 2 2 1 1 2 2 1 2 4 2 2 1 1 2 3 3 4 4 4 4 4 5 5 6 5 6 6 6 6 6 5 4 5 5 4 3
8 7 6 6 5 6 7 8 7 5 5 5 5 4 5 4 3 1 2 3 3 3 0 1 1 2 3 2 0 1 1 3 3 2 2 2 3 3 2 2 2 2 2 2 4 4 4 4 5 5 5 5 5 5 6 5 6 6 6 5 4 5
9 7 7 7 7 8 8 6 5 5 5 4 5 4 4 2 2 1 3 2 2 1 1 1 1 2 3 3 2 1 2 1 3 2 3 3 2 3 4 4 3 2 3 4 4 5 5 4 5 6 5 6 6 6 6 6 6 6 6 6 6 6
9 9 9 8 7 7 6 5 5 5 5 5 4 5 3 2 2 2 2 1 2 2 3 4 2 2 2 3 3 2 1 3 2 3 3 4 5 4 4 3 3 3 4 4 4 5 5 6 5 5 5 5 5 6 6 6 6 7 6 6 6 5
8 10 8 7 5 4 4 5 5 5 6 5 4 4 3 2 3 2 2 1 2 2 3 3 3 1 3 3 4 3 3 1 2 3 6 5 5 5 3 3 3 4 4 4 4 5 4 4 4 6 6 5 6 6 6 6 7 7 7 6 6 6
7 9 7 5 3 5 5 5 5 5 5 4 4 4 3 3 3 2 2 1 2 2 1 3 2 2 3 4 5 5 4 4 5 6 6 5 5 5 4 4 4 3 4 4 4 6 5 4 4 5 5 5 5 5 5 5 6 6 7 6 6 5
8 8 7 5 5 5 6 6 6 5 5 4 4 4 3 3 2 2 2 2 2 1 2 1 2 2 4 6 6 6 5 5 5 5 5 4 5 3 3 4 5 3 3 3 4 4 5 4 5 5 5 5 5 5 5 5 5 5 5 6 6 4
7 8 7 6 6 6 5 6 6 6 4 4 3 3 2 2 2 2 2 2 1 0 2 1 2 3 5 7 6 6 5 5 5 6 6 5 5 4 4 3 5 4 5 4 4 4 5 5 4 5 5 5 6 5 4 4 4 4 5 6 7 7
9 9 8 7 6 6 5 5 5 6 5 4 3 4 3 3 1 1 2 2 0 2 1 2 2 3 6 6 6 5 5 4 5 5 6 5 5 5 5 5 5 5 4 3 2 3 4 5 5 5 5 6 5 5 3 3 4 6 6 5 6 7
9 9 9 8 7 6 5 6 6 5 5 3 2 3 3 2 1 2 2 2 2 2 1 1 2 4 6 6 6 5 5 4 5 5 5 5 5 5 5 5 5 4 5 5 3 5 5 6 4 3 5 5 5 5 3 3 6 6 6 6 6 6
9 9 9 9 7 7 6 5 4 5 5 3 3 2 3 2 2 3 2 1 2 2 0 3 4 5 7 6 5 5 5 4 4 5 4 4 3 4 4 4 4 4 5 6 5 6 7 4 5 6 2 3 4 5 3 3 7 7 6 5 5 7
8 8 8 8 8 6 5 5 5 5 4 4 4 4 2 2 3 2 2 2 3 2 3 4 4 6 6 6 6 5 5 4 4 5 4 4 4 5 6 6 5 6 3 5 5 6 7 7 5 6 6 7 3 4 3 3 9 7 6 6 6 7
8 8 7 7 7 6 3 3 4 4 6 4 1 1 3 2 2 3 4 5 4 3 4 4 5 6 5 5 5 5 6 6 6 6 6 6 6 7 6 6 6 5 5 4 3 4 7 6 5 6 2 1 4 6 5 3 4 8 5 7 5 6
8 7 7 6 6 5 6 4 5 6 5 4 2 2 2 2 1 4 4 3 3 4 5 5 5 5 5 6 6 7 7 7 6 5 5 6 6 7 6 6 6 6 3 5 5 5 6 7 6 7 6 3 3 2 5 4 11 6 3 7 5 7
8 7 6 6 7 7 7 7 7 7 6 6 5 3 3 3 3 3 4 4 3 4 5 5 4 6 7 8 7 7 7 6 6 5 5 6 6 5 5 5 6 6 6 3 6 4 6 7 8 7 4 4 3 3 4 7 7 4 6 6 5 6
7 6 7 7 8 8 8 9 8 8 7 5 6 5 6 7 4 4 5 3 3 4 6 6 7 8 8 7 8 7 6 6 5 5 6 5 5 6 6 7 6 5 6 5 4 6 5 6 6 8 7 4 2 3 7 7 5 6 6 3 3 6
7 6 6 6 6 7 7 7 8 8 8 9 8 3 1 2 5 4 4 4 4 5 7 8 8 8 7 7 7 6 5 5 5 5 5 6 6 5 5 5 5 6 5 5 5 6 6 5 2 7 6 6 6 4 2 4 6 6 6 3 3 7
6 6 5 6 6 6 8 7 7 6 6 6 6 6 5 5 3 4 5 4 4 5 6 7 8 8 8 7 6 6 5 5 5 5 6 6 5 5 6 6 6 6 6 6 5 5 4 5 6 5 5 6 5 4 4 3 3 5 6 9 9 5
6 6 6 6 7 6 6 7 7 8 6 2 4 6 6 4 5 4 5 3 6 6 7 8 8 8 7 6 6 5 4 5 6 5 5 5 5 5 7 7 7 6 5 5 5 4 5 5 5 5 3 4 3 3 3 1 3 3 3 7 5 8
7 6 6 6 6 5 6 7 8 7 9 6 5 5 5 5 5 4 5 4 5 6 7 7 7 7 6 5 5 5 5 5 5 4 5 5 5 7 8 8 6 5 5 6 5 6 6 5 5 5 5 4 4 4 3 3 5 7 3 1 5 7
7 6 6 6 6 7 6 6 8 8 9 9 6 7 6 5 4 3 5 5 6 6 6 6 6 6 6 5 5 5 5 4 4 4 5 6 6 7 7 6 5 6 7 7 6 7 7 6 6 6 6 6 6 6 5 5 6 6 5 4 5 6
7 7 6 6 5 6 6 5 5 8 9 9 8 7 7 7 5 5 6 6 5 7 6 6 6 6 6 5 5 4 4 4 5 6 6 5 7 7 6 5 5 6 6 7 7 7 7 8 8 7 7 7 6 6 6 6 6 6 6 6 6 6
9 7 6 6 6 5 5 6 6 6 7 7 7 6 6 6 5 6 6 6 7 7 6 7 6 6 4 4 4 5 4 5 6 6 6 7 6 6 6 5 5 6 7 7 7 7 8 8 8 7 6 6 7 7 7 6 6 7 6 7 5 5
9 7 6 6 6 6 6 6 6 6 6 6 5 5 5 6 5 6 6 6 7 7 7 6 6 6 4 3 3 3 3 4 5 5 6 6 6 5 5 5 6 7 8 7 8 9 9 8 9 8 7 7 7 7 7 7 6 7 7 7 7 8
9 8 7 7 6 7 6 5 4 4 5 6 6 6 5 6 7 7 5 7 6 7 7 6 6 4 3 3 2 2 4 6 6 6 5 5 5 5 4 6 6 7 7 7 8 8 8 8 9 9 8 7 7 7 7 7 6 7 6 6 6 6
9 8 7 7 6 7 6 6 5 6 7 8 7 6 6 6 6 6 7 8 7 7 6 6 5 4 3 3 2 4 6 6 5 5 4 4 4 5 6 7 7 7 8 6 8 9 7 7 8 8 7 6 7 8 7 7 6 6 6 5 6 6
8 7 8 7 8 7 8 8 7 6 7 8 8 8 8 8 8 6 7 7 7 7 5 5 5 3 3 3 3 4 6 5 5 4 4 4 4 5 7 7 7 8 8 7 8 8 7 8 7 6 7 8 7 7 7 6 7 7 6 6 6 6
Wind_Direction
137 136 137 135 133 137 149 149 152 153 154 155 150 150 152 157 161 168 165 168 173 155 165 181 178 167 176 173 184 199 201 203 219 218 221 232 260 278 292 300 302 302 301 300 303 305 307 308 308 306 303 303 304 308 302 310 305 278 275 257 198 189
140 139 141 136 137 142 149 148 150 156 157 156 153 153 154 162 175 170 171 177 177 182 179 196 202 193 187 188 207 206 205 206 216 228 247 265 278 270 270 274 281 285 288 292 296 300 300 302 300 298 296 297 301 293 293 294 300 295 278 263 217 210
137 141 138 134 140 139 139 142 149 150 155 156 160 151 154 179 182 169 171 193 192 200 188 211 202 216 194 205 205 208 210 213 218 233 241 264 279 287 289 286 285 283 280 282 288 293 295 289 290 291 296 299 291 283 281 278 281 283 275 241 226 227
136 135 133 137 134 133 140 146 148 145 146 149 145 144 181 195 188 178 191 204 208 216 219 216 224 220 215 194 197 210 214 218 223 235 254 261 284 292 291 296 296 299 302 303 294 282 283 286 281 278 280 280 277 277 274 273 268 276 277 261 236 221
132 130 135 140 140 139 145 147 145 152 150 148 148 170 199 209 195 188 201 204 214 217 228 222 233 264 223 177 189 203 218 217 228 260 253 259 258 268 285 284 292 296 284 285 291 287 286 289 291 294 289 283 276 275 272 264 258 262 267 263 256 224
134 140 145 143 143 153 152 154 158 170 156 164 175 191 205 215 209 203 203 212 213 225 232 232 229 227 205 179 191 206 212 197 224 246 235 243 259 261 264 259 263 271 271 263 265 273 273 268 277 277 278 279 277 274 264 261 258 255 263 267 258 232
141 146 148 147 152 151 159 167 168 170 166 188 199 197 215 219 222 211 209 206 211 223 228 236 214 200 184 191 201 203 214 203 216 249 250 242 264 258 260 270 275 269 273 268 267 268 271 270 261 268 263 257 260 263 265 268 267 262 262 267 267 250
152 154 167 167 160 166 171 171 179 176 185 199 194 203 215 224 220 207 219 214 205 194 179 191 165 137 200 187 202 205 198 196 219 248 248 223 268 284 298 306 297 294 294 291 289 283 279 282 291 292 301 300 287 269 261 259 264 271 276 322 308 277
161 167 173 173 169 180 172 183 182 187 196 204 187 203 214 220 223 215 215 203 182 140 106 109 105 182 165 145 185 191 175 198 215 238 245 306 275 297 309 303 294 281 278 284 287 289 291 295 290 285 282 292 293 283 269 267 268 268 275 259 267 280
170 175 172 172 182 173 181 189 196 198 203 189 187 205 209 203 204 201 194 168 132 129 109 114 129 59 80 73 71 65 159 215 230 221 129 183 246 220 252 282 303 320 332 328 329 324 333 325 321 320 316 312 306 299 290 275 251 238 225 225 206 203
171 174 169 184 178 179 184 198 201 200 175 186 186 197 198 198 198 204 152 114 116 112 146 150 128 125 116 77 29 226 221 185 88 65 126 161 188 152 283 336 318 323 326 325 319 314 326 323 323 324 322 319 310 315 311 308 300 284 265 263 244 229
166 172 175 186 179 185 197 202 199 175 174 187 172 176 177 189 172 105 80 70 59 29 39 114 115 98 98 103 107 266 49 51 52 84 84 40 24 354 348 325 351 335 314 341 333 338 334 342 328 319 323 320 319 317 310 310 310 305 299 287 263 239
162 170 182 185 190 197 201 192 168 165 174 145 141 147 155 134 106 79 72 76 68 12 355 311 192 129 108 91 55 27 38 79 116 81 63 57 44 10 18 15 8 359 14 6 355 340 336 340 335 328 331 326 329 323 319 321 314 313 300 289 288 274
166 173 183 187 196 195 188 154 154 147 127 125 145 127 110 108 103 75 81 76 74 24 353 336 272 106 93 91 70 51 107 105 73 85 77 52 31 28 29 33 3 17 357 3 344 327 336 333 325 322 323 314 318 307 310 313 313 309 301 296 286 287
170 172 176 182 190 151 136 129 124 122 117 121 118 113 114 110 81 85 92 62 45 12 349 5 329 23 80 71 54 50 65 82 94 64 52 45 54 38 39 27 16 15 348 351 343 324 333 321 323 317 307 309 306 304 309 307 311 311 309 302 297 280
164 163 161 146 130 122 124 119 118 112 109 112 113 103 101 94 109 101 109 71 52 352 3 30 38 60 44 47 63 65 43 44 43 54 53 46 49 36 10 8 4 41 14 342 344 334 339 327 317 307 301 304 299 305 307 309 314 314 311 312 308 315
159 135 109 121 126 118 117 113 109 108 111 110 107 107 106 116 105 102 85 68 36 305 56 49 31 10 61 71 63 62 50 55 56 61 54 42 42 26 30 11 1 8 49 340 345 329 329 326 318 308 305 305 304 313 316 316 313 312 321 332 327 331
123 116 124 127 125 123 124 122 115 112 109 102 97 93 93 93 81 76 79 71 27 198 80 9 29 47 75 77 74 67 57 55 59 58 53 42 28 17 23 37 11 359 8 6 348 343 333 327 321 323 322 319 322 329 325 322 313 334 353 349 345 337
126 129 128 128 128 124 114 95 96 102 99 89 77 69 77 79 76 67 78 102 168 69 67 15 22 75 82 79 73 66 60 52 59 59 53 42 25 14 16 15 33 0 0 353 324 338 329 326 335 332 325 325 324 325 328 326 356 4 359 354 347 340
141 139 132 131 134 130 128 130 118 98 89 87 67 84 68 93 102 107 145 150 178 97 27 354 50 78 83 80 78 69 66 50 54 57 51 41 21 18 22 19 16 20 9 354 351 357 353 346 333 332 322 327 324 321 352 351 9 3 355 356 349 343
152 144 141 145 147 148 146 135 118 130 127 128 130 106 92 116 139 178 164 165 85 34 27 90 85 78 71 72 71 63 54 41 46 57 56 43 31 31 39 49 25 24 19 8 358 356 355 340 360 354 344 321 333 327 348 4 10 358 355 344 347 352
148 147 149 153 152 155 162 166 147 149 133 136 138 133 134 194 189 162 146 91 73 97 102 93 90 81 76 73 64 55 46 34 34 36 49 43 47 42 33 33 32 18 19 26 1 354 353 355 20 0 337 340 344 331 324 25 7 352 352 353 353 353
151 150 155 154 149 150 137 136 131 140 135 111 46 131 157 170 141 120 98 98 111 110 96 90 84 81 79 70 66 55 41 35 40 42 50 42 40 36 29 28 26 40 1 8 0 355 5 31 10 332 285 55 344 356 334 353 355 347 352 343 352 354
148 149 149 150 132 128 130 111 84 101 80 81 135 118 63 61 80 94 97 122 106 105 97 87 83 83 76 62 53 51 52 54 51 52 63 53 39 33 24 23 21 24 36 25 12 356 8 13 30 2 12 350 282 337 328 18 346 324 352 335 356 352
145 146 142 141 137 133 119 99 90 75 77 78 64 75 118 108 131 122 114 90 100 95 91 84 73 67 64 62 59 60 63 60 58 48 56 54 44 32 32 27 31 35 30 45 32 4 5 15 30 28 32 357 351 19 1 325 337 286 349 337 347 355
135 139 145 149 146 140 140 135 129 124 127 130 144 158 159 153 145 122 116 129 93 83 77 69 65 67 64 67 65 64 65 62 56 46 52 55 43 33 28 32 32 46 39 33 67 35 19 6 34 28 33 49 27 357 340 329 5 333 333 282 330 356
144 145 149 149 146 137 134 140 145 147 150 155 150 177 153 129 131 129 121 107 95 78 79 79 70 70 69 70 70 63 64 63 59 54 46 46 40 35 37 44 36 46 43 40 45 59 33 1 5 31 24 22 26 18 0 1 356 313 333 333 17 357
142 147 152 148 149 151 147 146 135 134 141 151 156 148 147 146 130 122 112 110 92 80 77 78 76 71 74 73 72 68 63 58 55 47 49 47 46 40 50 45 46 46 50 47 48 59 50 26 47 17 11 26 20 8 3 26 355 340 313 334 334 349
144 148 155 157 153 154 147 145 139 135 129 145 140 137 139 131 121 125 116 119 99 88 78 73 73 75 73 76 74 74 64 59 54 45 46 47 45 52 59 61 50 43 47 47 43 42 49 35 34 30 10 18 20 10 345 348 337 351 355 343 334 351
152 157 156 151 149 145 138 135 135 139 139 147 143 128 126 132 138 143 126 111 94 85 83 78 74 76 75 72 74 67 65 59 51 46 49 49 50 53 59 62 55 52 44 51 34 40 46 37 37 27 28 354 18 352 7 2 6 5 346 13 334 335
156 152 150 146 149 148 141 142 142 145 147 146 148 137 135 146 143 140 118 106 95 92 84 88 89 77 76 70 65 60 64 60 56 53 52 51 55 67 68 66 55 51 48 48 40 40 37 36 37 33 26 24 25 20 11 353 338 344 340 332 333 342
151 150 141 139 140 143 138 132 134 144 150 151 146 150 156 158 164 144 130 120 114 97 86 83 80 80 64 60 63 55 48 49 49 50 52 56 67 73 75 69 58 56 54 50 46 47 44 37 31 33 31 23 25 16 16 9 351 344 344 336 329 330
152 143 140 139 142 136 128 131 140 148 152 150 147 156 154 145 156 140 136 127 110 101 97 84 81 84 75 80 85 74 56 51 52 55 64 68 68 69 72 72 71 65 60 55 50 49 49 43 39 39 29 28 30 23 18 3 6 4 357 344 324 333
148 139 138 138 138 131 130 135 145 153 150 140 125 131 131 134 133 125 128 121 112 110 102 106 101 97 118 105 101 96 76 64 60 70 77 77 75 73 76 80 74 68 61 56 54 51 49 45 43 39 35 38 32 27 21 8 10 13 2 360 358 355
139 139 143 143 135 131 132 135 138 137 129 117 122 117 115 123 128 125 123 113 108 105 106 114 113 121 120 113 115 64 56 57 71 80 82 80 77 73 74 74 72 71 69 62 58 56 51 47 46 39 38 38 33 32 22 14 13 13 6 8 0 349
146 145 147 139 136 133 132 127 127 132 130 123 120 114 110 110 112 119 123 117 114 110 117 119 120 123 132 121 99 64 63 88 94 89 84 88 86 80 77 80 75 71 68 59 61 55 47 46 44 39 39 32 40 32 22 17 15 12 11 357 6 1
146 144 139 134 128 128 128 127 133 133 130 124 126 126 126 123 121 120 119 119 120 132 129 114 118 133 113 81 77 84 96 97 94 93 88 88 88 84 83 84 81 73 69 58 61 56 49 48 42 42 40 38 41 33 23 15 18 15 8 12 11 9